DW2182 Weather Reports


time (UTC)temp
F
wind
direction
speed
knots
gust
knots
rain 1hr
in
rain 24hr
in
rain mn
in
humidity
%
barometer
mb
20260901013516 75 0.0 0.0 0.00 0.00 0.00 78 1012.5
20260901012517 76 0.0 0.0 0.00 0.00 0.00 76 1012.4
20260901011557 77 0.0 0.0 0.00 0.00 0.00 73 1012.3
20260901010517 78 0.0 0.0 0.00 0.00 0.00 72 1012.4
20260901005516 79 0.0 1.7 0.00 0.00 0.00 71 1012.2
20260901004517 80 0.0 0.0 0.00 0.00 0.00 69 1012.3
20260901003517 80 0.0 0.0 0.00 0.00 0.00 67 1012.3
20260901002516 81 0.0 0.0 0.00 0.00 0.00 65 1012.4
20260901001517 81 23 0.9 3.5 0.00 0.00 0.00 64 1012.2
20260901000516 82 23 0.9 2.6 0.00 0.00 0.00 63 1012.4
20260831235516 82 0.0 0.0 0.00 0.00 0.00 63 1012.3
20260831234516 84 23 1.7 4.3 0.00 0.00 0.00 59 1012.2
20260831233516 84 135 1.7 2.6 0.00 0.00 0.00 57 1012.3
20260831232516 85 23 1.7 5.2 0.00 0.00 0.00 55 1012.3
20260831231536 85 0 0.9 1.7 0.00 0.00 0.00 56 1012.3
20260831230516 85 0 2.6 6.1 0.00 0.00 0.00 52 1012.3
20260831225516 86 0 2.6 7.0 0.00 0.00 0.00 48 1012.2
20260831224517 86 158 1.7 6.1 0.00 0.00 0.00 51 1012.3
20260831223517 87 135 2.6 5.2 0.00 0.00 0.00 50 1012.3
20260831222517 87 135 1.7 3.5 0.00 0.00 0.00 47 1012.1
20260831221516 87 158 1.7 4.3 0.00 0.00 0.00 46 1012.1
20260831220516 87 0 2.6 6.1 0.00 0.00 0.00 48 1012.2
20260831215516 87 0 4.3 7.8 0.00 0.00 0.00 48 1012.1
20260831214516 88 23 3.5 7.0 0.00 0.00 0.00 49 1012.2
20260831213516 88 0 1.7 3.5 0.00 0.00 0.00 48 1012.1
20260831212516 88 135 0.9 3.5 0.00 0.00 0.00 49 1011.9
20260831211516 88 0 1.7 4.3 0.00 0.00 0.00 50 1012.0
20260831210516 88 0 2.6 6.1 0.00 0.00 0.00 49 1012.0
20260831205519 89 135 1.7 4.3 0.00 0.00 0.00 50 1011.9
20260831204517 89 135 2.6 7.0 0.00 0.00 0.00 48 1011.9
20260831203517 88 0 1.7 4.3 0.00 0.00 0.00 49 1011.8
20260831202516 88 135 2.6 6.1 0.00 0.00 0.00 50 1011.8
20260831201536 88 0 2.6 6.1 0.00 0.00 0.00 50 1011.9
20260831200516 88 113 1.7 4.3 0.00 0.00 0.00 52 1011.6
20260831195516 87 23 2.6 9.6 0.00 0.00 0.00 52 1011.5
20260831194516 87 0 2.6 7.8 0.00 0.00 0.00 52 1011.6
20260831193516 87 0 3.5 8.7 0.00 0.00 0.00 52 1011.6
20260831192536 87 0 3.5 8.7 0.00 0.00 0.00 51 1011.6
20260831191516 86 23 3.5 9.6 0.00 0.00 0.00 55 1011.6
20260831190516 86 135 1.7 4.3 0.00 0.00 0.00 56 1011.7
20260831185517 85 0 2.6 6.1 0.00 0.00 0.00 56 1011.6
20260831184517 85 0 3.5 7.8 0.00 0.00 0.00 57 1011.7
20260831183537 85 23 3.5 7.8 0.00 0.00 0.00 63 1011.7
20260831182516 85 135 2.6 8.7 0.00 0.00 0.00 67 1011.8
20260831181516 84 135 3.5 10.4 0.00 0.00 0.00 68 1011.7
20260831180516 83 135 2.6 6.1 0.00 0.00 0.00 68 1011.6
20260831175516 83 158 3.5 7.0 0.00 0.00 0.00 70 1011.6
20260831174516 83 135 2.6 5.2 0.00 0.00 0.00 72 1011.7
20260831173516 83 158 1.7 6.1 0.00 0.00 0.00 73 1011.9
20260831172516 82 23 2.6 7.0 0.00 0.00 0.00 73 1011.9
20260831171537 81 135 0.9 3.5 0.00 0.00 0.00 79 1011.9
20260831170516 80 158 1.7 6.1 0.00 0.00 0.00 80 1011.9
20260831165516 80 135 1.7 6.1 0.00 0.00 0.00 82 1012.0
20260831164516 79 158 1.7 3.5 0.00 0.00 0.00 82 1011.8
20260831163517 79 135 1.7 6.1 0.00 0.00 0.00 83 1011.9
20260831162516 79 135 2.6 7.0 0.00 0.00 0.00 81 1011.7
20260831161518 79 0 2.6 7.0 0.00 0.00 0.00 82 1011.8
20260831160536 79 135 1.7 3.5 0.00 0.00 0.00 84 1011.6
20260831155516 79 158 2.6 7.8 0.00 0.00 0.00 84 1011.5
20260831154516 79 135 3.5 7.0 0.00 0.00 0.00 84 1011.3
20260831153516 78 135 1.7 7.0 0.00 0.00 0.00 86 1011.1
20260831152516 78 135 1.7 4.3 0.00 0.00 0.00 87 1011.0
20260831151536 77 135 2.6 4.3 0.00 0.00 0.00 89 1010.9
20260831150515 77 158 4.3 7.8 0.00 0.00 0.00 89 1010.6
20260831145516 77 135 1.7 4.3 0.00 0.00 0.00 90 1010.6
20260831144556 76 0 1.7 5.2 0.00 0.00 0.00 92 1010.6
20260831143516 75 23 1.7 4.3 0.00 0.00 0.00 92 1010.4
20260831142516 75 23 1.7 6.1 0.00 0.00 0.00 92 1010.3
20260831141515 75 158 1.7 6.1 0.00 0.00 0.00 93 1010.5
20260831140516 74 135 1.7 3.5 0.00 0.00 0.00 93 1010.7
20260831135516 74 135 1.7 4.3 0.00 0.00 0.00 93 1010.6
20260831134536 74 135 1.7 3.5 0.00 0.00 0.00 93 1010.3
20260831133516 74 135 1.7 6.1 0.00 0.00 0.00 93 1010.0
20260831132516 73 135 0.9 3.5 0.00 0.00 0.00 93 1009.7
20260831131516 73 0.0 0.0 0.00 0.00 0.00 93 1009.6
20260831130515 72 135 0.9 3.5 0.00 0.00 0.00 94 1009.5
20260831125515 72 113 0.9 2.6 0.00 0.00 0.00 94 1009.4
20260831124536 71 0.0 1.7 0.00 0.00 0.00 95 1009.3
20260831123516 71 0.0 0.0 0.00 0.00 0.00 95 1009.0
20260831122515 71 0.0 0.0 0.00 0.00 0.00 96 1008.8
20260831121516 71 0.0 0.0 0.00 0.00 0.00 96 1008.6
20260831120538 70 0.0 0.0 0.00 0.00 0.00 97 1008.5
20260831115516 70 0.0 0.0 0.00 0.00 0.00 97 1008.5
20260831114518 70 90 0.9 1.7 0.00 0.00 0.00 96 1008.4
20260831113516 70 0.0 0.9 0.00 0.00 0.00 96 1008.4
20260831112518 70 0.0 2.6 0.00 0.00 0.00 96 1008.4
20260831111516 70 0.0 0.0 0.00 0.00 0.00 96 1008.4
20260831110538 70 0.0 0.0 0.00 0.00 0.00 96 1008.3
20260831105538 70 0.0 0.0 0.00 0.00 0.00 96 1007.8
20260831104516 71 0.0 0.0 0.00 0.00 0.00 96 1008.1
20260831103518 71 0.0 0.0 0.00 0.00 0.00 96 1007.8
20260831102538 71 0.0 0.0 0.00 0.00 0.00 97 1007.4
20260831101518 71 90 0.9 3.5 0.00 0.00 0.00 96 1007.4
20260831100518 71 90 0.9 2.6 0.00 0.00 0.00 96 1007.2
20260831095518 71 90 1.7 3.5 0.00 0.00 0.00 97 1007.6
20260831094519 71 90 0.9 2.6 0.00 0.00 0.00 96 1007.7
20260831093538 71 90 1.7 3.5 0.00 0.00 0.00 96 1007.8
20260831092518 71 90 2.6 6.1 0.00 0.00 0.00 96 1007.6
20260831091518 71 90 2.6 5.2 0.00 0.00 0.00 96 1007.6
20260831090519 71 90 3.5 6.1 0.00 0.00 0.00 96 1007.7
20260831085518 71 90 2.6 5.2 0.00 0.00 0.00 96 1007.7
20260831084517 71 90 3.5 5.2 0.00 0.00 0.00 96 1007.7
20260831083538 71 90 3.5 6.1 0.00 0.00 0.00 96 1007.6
20260831082518 71 90 2.6 5.2 0.00 0.00 0.00 96 1007.6
20260831081518 71 90 2.6 5.2 0.00 0.00 0.00 96 1007.3
20260831080517 72 90 2.6 5.2 0.00 0.00 0.00 96 1007.4
20260831075518 72 90 2.6 5.2 0.00 0.00 0.00 96 1007.6
20260831074517 72 68 2.6 6.1 0.00 0.00 0.00 96 1007.6
20260831073517 72 90 1.7 2.6 0.00 0.00 0.00 96 1007.5
20260831072518 72 90 0.9 3.5 0.00 0.00 0.00 96 1007.5
20260831071518 72 90 1.7 2.6 0.00 0.00 0.00 96 1007.5
20260831070518 72 90 2.6 5.2 0.00 0.00 0.00 95 1007.6
20260831065518 72 90 2.6 5.2 0.00 0.00 0.00 95 1007.6
20260831064517 72 90 2.6 6.1 0.00 0.00 0.00 95 1007.6
20260831063519 73 68 1.7 4.3 0.00 0.00 0.00 95 1007.5
20260831062518 73 68 1.7 3.5 0.00 0.00 0.00 95 1007.7
20260831061517 73 90 1.7 5.2 0.00 0.00 0.00 95 1007.7
20260831060537 73 68 1.7 4.3 0.00 0.00 0.00 95 1007.9
20260831055517 73 90 1.7 5.2 0.00 0.00 0.00 94 1007.8
20260831054537 73 90 2.6 6.1 0.00 0.00 0.00 94 1007.8
20260831053517 74 90 2.6 7.0 0.00 0.00 0.00 94 1007.9
20260831052517 74 90 2.6 6.1 0.00 0.00 0.00 94 1008.0
20260831051537 74 90 3.5 7.8 0.00 0.00 0.00 94 1008.0
20260831050537 74 68 2.6 7.8 0.00 0.00 0.00 93 1008.0
20260831045517 74 90 2.6 7.0 0.00 0.00 0.00 93 1008.1
20260831044518 74 90 3.5 7.0 0.00 0.00 0.00 92 1008.0
20260831043518 74 90 5.2 10.4 0.00 0.00 0.00 92 1008.0
20260831042518 75 90 3.5 9.6 0.00 0.00 0.00 92 1007.9
20260831041539 75 90 3.5 7.0 0.00 0.00 0.00 92 1007.9
20260831040517 75 90 3.5 7.8 0.00 0.00 0.00 91 1007.8
20260831035518 75 90 2.6 6.1 0.00 0.00 0.00 91 1007.7
20260831034538 75 90 3.5 8.7 0.00 0.00 0.00 91 1007.6
20260831033518 75 90 2.6 10.4 0.00 0.00 0.00 90 1007.4
20260831032518 75 90 3.5 7.0 0.00 0.00 0.00 90 1007.5
20260831031518 75 90 5.2 13.0 0.00 0.00 0.00 90 1007.5
20260831030518 76 90 4.3 7.8 0.00 0.00 0.00 89 1007.4
20260831025517 76 90 4.3 11.3 0.00 0.00 0.00 89 1007.4
20260831024517 76 90 3.5 7.8 0.00 0.00 0.00 88 1007.5
20260831023518 77 90 2.6 7.8 0.00 0.00 0.00 88 1007.6
20260831022537 77 90 3.5 7.0 0.00 0.00 0.00 87 1007.5
20260831021557 78 90 3.5 7.0 0.00 0.00 0.00 86 1007.5
20260831020618 78 68 3.5 7.8 0.00 0.00 0.00 85 1007.5
20260831015537 78 68 2.6 7.0 0.00 0.00 0.00 85 1007.5
20260831014517 79 68 2.6 7.0 0.00 0.00 0.00 85 1007.3